Date,TemperatureHighF,TemperatureAvgF,TemperatureLowF,DewpointHighF,DewpointAvgF,DewpointLowF,HumidityHigh,HumidityAvg,HumidityLow,PressureMaxIn,PressureMinIn,WindSpeedMaxMPH,WindSpeedAvgMPH,GustSpeedMaxMPH,PrecipitationSumIn
2013-1-1,64,53,45,53,47,40,93,81,66,30.15,29.90,6,0,6,0.04
2013-1-2,61,54,52,54,51,47,95,88,68,30.11,29.88,8,0,8,0.08
2013-1-3,52,47,42,47,42,39,89,83,70,30.25,30.06,6,0,6,0.01
2013-1-4,56,42,31,40,34,29,93,78,48,30.35,30.23,10,0,10,0.00
2013-1-5,54,40,26,39,29,23,90,67,36,30.40,30.25,5,0,5,0.00
2013-1-6,53,47,41,45,40,34,92,77,60,30.25,30.08,12,1,12,0.04
2013-1-7,56,42,31,41,32,28,93,72,42,30.39,30.20,7,1,12,0.01
2013-1-8,56,43,30,45,37,28,90,81,65,30.40,30.30,5,0,5,0.00
2013-1-9,70,57,40,56,50,38,92,77,60,30.42,30.32,6,0,6,0.00
2013-1-10,74,60,46,59,53,44,94,79,51,30.41,30.26,13,2,13,0.05
2013-1-11,72,63,61,65,61,58,95,92,77,30.26,30.13,12,2,12,0.00
2013-1-12,74,64,60,63,59,56,90,84,67,30.13,30.05,3,0,12,0.00
2013-1-13,77,69,62,65,61,58,90,78,61,30.12,30.02,5,0,12,0.00
2013-1-14,79,70,59,65,61,56,90,74,57,30.09,30.03,5,0,13,0.00
2013-1-15,76,70,59,62,60,56,90,72,58,30.10,29.95,13,1,13,0.00
2013-1-16,75,67,62,65,61,57,94,80,67,29.98,29.89,18,2,18,0.10
2013-1-17,69,56,42,66,53,37,95,89,74,30.17,29.72,22,4,22,0.37
2013-1-18,56,42,32,38,32,26,92,70,35,30.49,30.17,8,1,8,0.01
2013-1-19,60,42,26,39,32,24,91,71,38,30.48,30.20,5,0,5,0.00
2013-1-20,66,48,35,42,37,33,93,68,36,30.20,30.04,15,1,15,0.01
2013-1-21,63,49,32,40,32,23,91,58,30,30.09,29.98,15,3,15,0.00
2013-1-22,51,42,34,24,20,17,53,41,29,30.28,30.07,16,3,16,0.00
2013-1-23,55,41,28,36,25,17,72,54,37,30.36,30.14,16,1,16,0.00
2013-1-24,63,52,36,43,32,13,80,50,20,30.41,30.08,20,4,20,0.00
2013-1-25,40,34,29,27,17,10,61,50,37,30.45,30.13,10,1,10,0.00
2013-1-26,60,45,36,38,33,27,85,65,44,30.28,30.09,6,0,6,0.00
2013-1-27,56,45,33,33,30,26,81,58,39,30.50,30.28,12,2,12,0.00
2013-1-28,61,48,42,48,38,29,91,70,52,30.43,30.27,6,0,6,0.00
2013-1-29,76,58,41,62,52,38,92,79,60,30.27,30.01,16,1,16,0.00
2013-1-30,77,67,52,65,60,46,92,80,62,30.02,29.49,30,6,30,0.92
2013-1-31,53,45,37,46,29,23,84,55,32,30.16,29.70,24,7,24,0.10
2013-2-1,49,42,29,30,20,10,65,42,21,30.35,30.08,26,4,26,0.00
2013-2-2,58,39,22,37,21,14,82,53,23,30.36,30.08,16,1,16,0.00
2013-2-3,61,48,38,38,33,27,86,60,30,30.08,29.91,27,4,27,0.01
2013-2-4,51,42,30,33,30,25,84,63,41,30.13,30.01,4,0,4,0.00
2013-2-5,66,50,32,48,40,29,89,72,50,30.03,29.93,14,1,14,0.00
2013-2-6,72,54,40,50,41,36,94,68,28,30.15,29.99,7,0,7,0.01
2013-2-7,48,45,40,46,42,35,93,89,79,30.14,29.84,14,2,14,2.25
2013-2-8,61,50,44,50,45,41,92,83,65,30.09,29.86,15,2,15,0.01
2013-2-9,64,45,30,40,34,28,93,71,33,30.29,30.08,6,0,6,0.00
2013-2-10,66,52,36,54,43,32,92,72,50,30.37,30.08,17,4,17,0.29
2013-2-11,67,60,54,62,57,52,94,91,80,30.17,30.01,12,2,12,1.05
2013-2-12,63,54,48,53,48,41,94,82,47,30.10,29.82,7,0,7,0.74
2013-2-13,57,51,46,54,47,40,95,87,74,29.89,29.71,18,2,18,0.04
2013-2-14,52,43,34,41,37,32,92,81,59,30.08,29.88,4,0,4,0.01
2013-2-15,64,46,30,44,36,28,94,72,32,30.10,29.94,10,0,10,0.01
2013-2-16,48,41,37,40,30,14,95,69,32,30.01,29.83,21,4,21,0.12
2013-2-17,48,39,29,20,15,11,66,39,26,30.28,30.17,18,4,18,0.00
2013-2-18,29,26,24,21,20,19,84,78,68,30.34,30.28,0,0,0,0.00